• In United Kingdom
  • List of Countries
  • For 7 days
  • Water Temperature
  • Satellite Maps
  • Weather Map
  • Weather Widgets
  • user-avatar
    Login

    Hourly Weather Cancún

    Today, 25 November, Saturday

    Time Temperature Precipitation Wind Pressure Humidity
    00:00 +20°C° 0 mm 2 mps 761 mmHg 84%
    01:00 +20°C° 0 mm 2 mps 760 mmHg 85%
    02:00 +20°C° 0 mm 2 mps 760 mmHg 86%
    03:00 +19°C° 0 mm 2 mps 760 mmHg 86%
    04:00 +19°C° 0 mm 2 mps 760 mmHg 87%
    05:00 +19°C° 0 mm 2 mps 760 mmHg 87%
    06:00 +19°C° 0 mm 2 mps 761 mmHg 87%
    07:00 +21°C° 0 mm 2 mps 761 mmHg 77%
    08:00 +24°C° 0 mm 2 mps 761 mmHg 66%
    09:00 +26°C° 0 mm 2 mps 762 mmHg 56%
    10:00 +27°C° 0 mm 2 mps 761 mmHg 50%
    11:00 +28°C° 0 mm 2 mps 761 mmHg 45%
    12:00 +29°C° 0 mm 1 mps 761 mmHg 39%
    13:00 +29°C° 0 mm 1 mps 760 mmHg 41%
    14:00 +29°C° 0 mm 1 mps 760 mmHg 42%
    15:00 +28°C° 0 mm 2 mps 760 mmHg 43%
    16:00 +27°C° 0 mm 2 mps 760 mmHg 51%
    17:00 +25°C° 0 mm 2 mps 760 mmHg 58%
    18:00 +23°C° 0 mm 2 mps 760 mmHg 65%
    19:00 +23°C° 0 mm 2 mps 761 mmHg 67%
    20:00 +21°C° 0 mm 2 mps 761 mmHg 69%
    21:00 +21°C° 0 mm 2 mps 761 mmHg 71%
    22:00 +21°C° 0 mm 2 mps 761 mmHg 72%
    23:00 +20°C° 0 mm 2 mps 761 mmHg 72%

    Tomorrow, 26 November, Sunday

    Time Temperature Precipitation Wind Pressure Humidity
    00:00 +20°C° 0 mm 2 mps 761 mmHg 73%
    01:00 +20°C° 0 mm 2 mps 761 mmHg 74%
    02:00 +20°C° 0 mm 2 mps 761 mmHg 75%
    03:00 +20°C° 0 mm 2 mps 761 mmHg 76%
    04:00 +20°C° 0 mm 2 mps 761 mmHg 77%
    05:00 +19°C° 0 mm 2 mps 761 mmHg 78%
    06:00 +19°C° 0 mm 2 mps 761 mmHg 79%
    07:00 +21°C° 0 mm 2 mps 762 mmHg 71%
    08:00 +24°C° 0 mm 3 mps 762 mmHg 64%
    09:00 +26°C° 0 mm 3 mps 762 mmHg 56%
    10:00 +27°C° 0 mm 3 mps 762 mmHg 52%
    11:00 +28°C° 0 mm 3 mps 762 mmHg 48%
    12:00 +29°C° 0 mm 3 mps 761 mmHg 45%
    13:00 +29°C° 0 mm 3 mps 761 mmHg 46%
    14:00 +29°C° 0 mm 3 mps 760 mmHg 47%
    15:00 +28°C° 0 mm 3 mps 760 mmHg 49%
    16:00 +27°C° 0 mm 4 mps 760 mmHg 56%
    17:00 +25°C° 0 mm 4 mps 760 mmHg 63%
    18:00 +22°C° 0 mm 4 mps 760 mmHg 70%
    19:00 +22°C° 0 mm 4 mps 761 mmHg 73%
    20:00 +22°C° 0 mm 4 mps 761 mmHg 76%
    21:00 +21°C° 0 mm 4 mps 761 mmHg 79%
    22:00 +21°C° 0 mm 4 mps 761 mmHg 81%
    23:00 +21°C° 0 mm 4 mps 761 mmHg 83%

    Day after tomorrow, 27 November, Monday

    Time Temperature Precipitation Wind Pressure Humidity
    00:00 +21°C° 0 mm 3 mps 761 mmHg 85%
    01:00 +21°C° 0 mm 3 mps 760 mmHg 87%
    02:00 +21°C° 0 mm 3 mps 760 mmHg 89%
    03:00 +20°C° 0 mm 3 mps 760 mmHg 90%
    04:00 +20°C° 0 mm 3 mps 760 mmHg 91%
    05:00 +20°C° 0 mm 3 mps 760 mmHg 91%
    06:00 +21°C° 0 mm 3 mps 760 mmHg 92%
    07:00 +23°C° 0 mm 2 mps 761 mmHg 85%
    08:00 +25°C° 0 mm 2 mps 761 mmHg 77%
    09:00 +27°C° 0 mm 2 mps 761 mmHg 70%
    10:00 +28°C° 0.1 mm 1 mps 761 mmHg 67%
    11:00 +29°C° 0.1 mm 1 mps 761 mmHg 64%
    12:00 +30°C° 0.1 mm 1 mps 760 mmHg 61%
    13:00 +29°C° 0.4 mm 1 mps 760 mmHg 66%
    14:00 +29°C° 0.4 mm 2 mps 759 mmHg 71%
    15:00 +28°C° 0.4 mm 2 mps 758 mmHg 76%
    16:00 +27°C° 0.1 mm 2 mps 759 mmHg 79%
    17:00 +25°C° 0.1 mm 2 mps 759 mmHg 83%
    18:00 +24°C° 0.1 mm 2 mps 759 mmHg 86%
    19:00 +24°C° 0 mm 2 mps 760 mmHg 86%
    20:00 +24°C° 0 mm 2 mps 760 mmHg 86%
    21:00 +24°C° 0 mm 3 mps 761 mmHg 86%
    22:00 +24°C° 0 mm 2 mps 760 mmHg 86%
    23:00 +24°C° 0 mm 2 mps 760 mmHg 86%

    28 November, Tuesday

    Time Temperature Precipitation Wind Pressure Humidity
    00:00 +23°C° 0 mm 2 mps 760 mmHg 87%
    01:00 +23°C° 0.2 mm 2 mps 760 mmHg 88%
    02:00 +23°C° 0.2 mm 2 mps 760 mmHg 89%
    03:00 +23°C° 0.2 mm 2 mps 759 mmHg 90%
    04:00 +23°C° 0.3 mm 2 mps 760 mmHg 91%
    05:00 +23°C° 0.3 mm 2 mps 760 mmHg 92%
    06:00 +21°C° 0.3 mm 2 mps 760 mmHg 93%
    07:00 +24°C° 0.3 mm 2 mps 761 mmHg 87%
    08:00 +26°C° 0.3 mm 2 mps 761 mmHg 81%
    09:00 +28°C° 0.3 mm 2 mps 761 mmHg 75%
    10:00 +29°C° 0.9 mm 2 mps 761 mmHg 71%
    11:00 +30°C° 0.9 mm 2 mps 761 mmHg 67%
    12:00 +30°C° 0.9 mm 1 mps 760 mmHg 62%
    13:00 +30°C° 0.1 mm 2 mps 760 mmHg 63%
    14:00 +30°C° 0.1 mm 2 mps 759 mmHg 63%
    15:00 +30°C° 0.1 mm 2 mps 759 mmHg 63%
    16:00 +28°C° 0 mm 2 mps 759 mmHg 71%
    17:00 +27°C° 0 mm 2 mps 760 mmHg 78%
    18:00 +25°C° 0 mm 2 mps 760 mmHg 86%
    19:00 +25°C° 0 mm 2 mps 760 mmHg 87%
    20:00 +25°C° 0 mm 2 mps 761 mmHg 88%
    21:00 +25°C° 0 mm 2 mps 761 mmHg 89%
    22:00 +25°C° 0 mm 2 mps 761 mmHg 90%
    23:00 +24°C° 0 mm 2 mps 761 mmHg 90%

    29 November, Wednesday

    Time Temperature Precipitation Wind Pressure Humidity
    00:00 +24°C° 0 mm 2 mps 760 mmHg 91%
    01:00 +24°C° 0.1 mm 2 mps 760 mmHg 92%
    02:00 +24°C° 0.1 mm 2 mps 760 mmHg 92%
    03:00 +24°C° 0.1 mm 2 mps 760 mmHg 93%
    04:00 +24°C° 0.1 mm 2 mps 760 mmHg 93%
    05:00 +24°C° 0.1 mm 1 mps 761 mmHg 94%
    06:00 +24°C° 0.1 mm 1 mps 761 mmHg 94%
    07:00 +26°C° 0 mm 1 mps 761 mmHg 87%
    08:00 +27°C° 0 mm 1 mps 762 mmHg 80%
    09:00 +29°C° 0 mm 1 mps 762 mmHg 73%
    10:00 +30°C° 0.1 mm 1 mps 762 mmHg 69%
    11:00 +31°C° 0.1 mm 1 mps 762 mmHg 65%
    12:00 +32°C° 0.1 mm 1 mps 761 mmHg 61%
    13:00 +31°C° 0.4 mm 1 mps 761 mmHg 65%
    14:00 +30°C° 0.4 mm 1 mps 760 mmHg 69%
    15:00 +30°C° 0.4 mm 2 mps 760 mmHg 72%
    16:00 +28°C° 0.2 mm 2 mps 760 mmHg 79%
    17:00 +27°C° 0.2 mm 2 mps 761 mmHg 85%
    18:00 +25°C° 0.2 mm 2 mps 761 mmHg 91%
    19:00 +25°C° 0.6 mm 2 mps 761 mmHg 92%
    20:00 +25°C° 0.6 mm 2 mps 762 mmHg 93%
    21:00 +24°C° 0.6 mm 2 mps 762 mmHg 93%
    22:00 +24°C° 0.4 mm 2 mps 762 mmHg 93%
    23:00 +24°C° 0.4 mm 2 mps 761 mmHg 94%

    30 November, Thursday

    Time Temperature Precipitation Wind Pressure Humidity
    00:00 +24°C° 0.4 mm 2 mps 761 mmHg 94%
    01:00 +24°C° 0.1 mm 2 mps 761 mmHg 94%
    02:00 +24°C° 0.1 mm 1 mps 761 mmHg 94%
    03:00 +24°C° 0.1 mm 1 mps 760 mmHg 94%
    04:00 +24°C° 0 mm 1 mps 761 mmHg 95%
    05:00 +23°C° 0 mm 2 mps 761 mmHg 95%
    06:00 +23°C° 0 mm 2 mps 761 mmHg 95%
    07:00 +25°C° 0 mm 2 mps 762 mmHg 89%
    08:00 +26°C° 0 mm 2 mps 762 mmHg 83%
    09:00 +28°C° 0 mm 2 mps 762 mmHg 77%
    10:00 +29°C° 0 mm 2 mps 762 mmHg 70%
    11:00 +30°C° 0 mm 2 mps 761 mmHg 64%
    12:00 +31°C° 0 mm 3 mps 761 mmHg 57%
    13:00 +31°C° 0.2 mm 3 mps 760 mmHg 63%
    14:00 +30°C° 0.2 mm 3 mps 760 mmHg 69%
    15:00 +29°C° 0.2 mm 3 mps 760 mmHg 74%
    16:00 +28°C° 0.4 mm 3 mps 760 mmHg 79%
    17:00 +26°C° 0.4 mm 3 mps 760 mmHg 85%
    18:00 +25°C° 0.4 mm 3 mps 760 mmHg 90%
    19:00 +25°C° 0.2 mm 3 mps 761 mmHg 90%
    20:00 +25°C° 0.2 mm 3 mps 761 mmHg 91%
    21:00 +24°C° 0.2 mm 3 mps 761 mmHg 91%
    22:00 +24°C° 0 mm 3 mps 761 mmHg 91%
    23:00 +24°C° 0 mm 3 mps 761 mmHg 92%
    Show more